Location: Brede
(50.9167°N, 0.6000°E)
Time: 09:06:58
(UTC+00:00)

Tiros 1 - Pass Details

Date: 04 December 2020
Orbit: 630 x 663 km, 48.4° (Epoch: 16 January)

Event Time Altitude Azimuth Distance (km) Brightness Sun altitude
Rises 19:00:51 0° 280° (W) 2,992 11.8 -28.5°
Reaches altitude 10° 19:03:38 10° 265° (W) 2,073 10.7 -29.0°
Maximum altitude 19:07:15 22° 215° (SW) 1,438 9.2 -29.5°
Enters shadow 19:07:57 21° 203° (SSW) 1,464 9.1 -29.6°
